Theta_e
298 298 297 296 295 294 294 293 293 292 292 292 292 292 292 292 293 293 293 293 293 294 294 294 294 294 294 295 295 295 295 296 298 297 296 297 298 299 300 301 302 302 302
297 296 295 295 294 293 293 292 291 291 291 292 292 292 292 292 293 293 293 293 293 294 294 294 294 294 294 294 295 295 295 295 296 297 296 297 297 298 299 300 301 301 301
295 295 294 294 293 293 292 291 291 291 291 292 292 292 292 293 293 293 293 294 294 294 294 294 295 295 295 294 294 295 295 295 295 296 296 296 297 297 299 300 302 302 302
295 294 293 293 292 291 291 291 291 291 291 292 292 292 292 293 293 294 294 294 295 295 295 295 295 295 295 295 295 295 295 295 296 296 296 296 297 298 299 299 300 301 303
294 293 292 292 291 291 290 290 291 291 291 292 292 292 293 294 294 295 296 297 297 297 297 297 297 296 296 297 295 295 296 296 296 296 296 297 298 298 299 300 301 301 302
293 292 291 291 290 290 290 290 291 291 292 292 292 293 294 294 295 297 299 299 299 300 300 300 300 300 300 300 301 300 296 297 296 296 297 297 298 298 298 299 301 302 305
292 291 290 290 290 290 290 290 291 292 292 292 293 294 294 294 296 298 300 299 299 300 300 300 300 301 300 299 299 300 300 301 300 296 296 297 297 298 298 299 300 301 303
291 290 290 290 289 290 290 291 291 292 293 293 293 294 295 295 297 298 299 299 299 299 298 299 299 300 299 300 299 298 298 298 298 298 298 298 298 298 298 299 300 301 303
290 290 290 289 289 290 290 291 292 292 293 293 294 295 295 295 296 298 298 299 299 299 299 299 300 300 300 300 300 297 297 297 297 297 298 298 298 298 298 299 301 302 301
289 289 289 289 290 290 290 291 292 292 293 293 294 295 295 296 296 298 298 298 299 300 300 300 302 301 301 300 299 299 298 297 297 297 298 298 300 300 300 300 301 301 302
290 289 289 289 290 290 291 292 293 293 293 294 294 295 295 296 297 297 298 298 299 300 301 302 301 301 301 300 299 299 298 298 298 298 298 299 298 301 300 300 302 300 301
290 289 289 289 290 290 291 292 292 293 293 294 294 295 296 296 296 296 297 297 300 300 299 298 298 298 299 299 298 299 299 299 299 299 299 298 298 299 299 301 302 301 301
289 289 289 289 291 291 291 292 292 293 293 294 294 296 296 296 295 296 296 296 297 299 299 298 297 298 298 299 298 299 299 300 300 298 298 299 299 297 300 303 303 303 303
289 288 289 290 291 291 291 292 292 293 293 294 295 296 296 295 295 296 295 294 294 297 299 298 298 298 298 299 298 297 299 299 300 299 299 300 299 299 302 302 302 301 304
288 288 289 290 290 290 291 292 292 293 294 295 295 295 294 294 295 295 295 294 294 296 297 296 297 298 298 298 298 296 297 298 300 299 300 299 299 300 302 302 303 304 304
288 289 290 291 290 291 292 292 292 293 294 294 294 295 294 293 293 293 293 293 292 292 295 295 295 296 297 297 297 297 296 297 300 300 299 300 298 299 301 301 301 303 304
288 289 290 290 290 291 291 292 292 292 293 292 293 294 294 292 291 291 292 291 290 291 290 291 293 295 296 296 296 296 295 296 298 299 299 299 299 300 301 300 300 300 304
289 290 290 290 291 291 291 291 292 293 293 293 292 292 293 291 290 290 291 289 289 289 289 290 291 292 292 294 296 297 296 296 298 298 299 299 299 301 301 301 301 301 301
289 289 290 290 291 291 291 291 292 292 292 293 292 291 292 291 290 290 290 289 289 289 289 289 289 290 291 292 294 295 296 297 297 298 299 300 300 301 301 301 300 301 301
289 290 290 290 290 290 291 291 292 292 292 292 291 291 292 291 290 289 289 289 288 288 288 288 288 289 290 290 291 293 295 298 297 298 298 300 300 300 301 301 301 301 301
289 289 290 289 290 290 291 291 291 291 292 291 291 291 291 291 290 289 288 288 288 288 288 288 288 288 289 289 290 291 293 295 298 297 298 298 300 300 301 301 300 301 301
289 288 289 289 289 290 290 290 291 291 291 291 291 291 291 290 289 288 288 287 287 287 287 287 288 288 288 288 289 290 291 293 296 297 297 298 299 299 300 301 301 301 301
288 288 288 289 289 290 289 289 290 290 291 291 291 291 291 289 288 288 287 287 287 287 287 287 287 287 288 287 288 289 290 291 294 297 297 297 297 298 298 300 301 302 303
288 288 289 289 289 289 289 289 289 290 290 291 290 291 289 288 287 287 287 287 287 287 287 287 287 287 287 287 288 289 289 291 293 295 298 297 297 297 297 299 301 302 302
288 288 288 289 289 288 288 288 289 289 290 289 290 289 288 287 287 287 287 287 287 287 287 287 287 288 288 289 289 290 290 291 292 295 297 298 298 298 298 298 300 302 302
288 288 288 289 288 289 288 288 288 288 289 288 289 288 288 287 287 287 287 287 287 287 287 287 288 289 291 293 293 293 292 291 292 294 297 298 298 298 298 298 299 302 302
Wind_Speed
6 10 13 15 16 18 21 22 24 25 24 25 25 25 25 24 24 25 25 26 26 27 26 27 27 26 27 26 25 25 26 27 17 23 25 24 25 22 23 24 24 24 26
10 13 14 16 18 20 21 23 25 25 25 25 25 25 24 25 25 25 27 26 27 28 27 27 28 28 28 27 26 27 27 27 27 22 26 24 24 24 24 25 27 27 27
11 14 16 18 21 21 23 24 25 25 25 25 24 25 26 26 27 27 28 29 28 29 29 28 30 29 29 28 27 26 26 28 29 25 24 24 25 25 25 25 24 25 26
14 16 18 20 22 23 25 26 25 24 25 25 24 26 27 27 28 29 29 29 30 31 32 32 33 32 32 31 30 29 29 28 28 26 23 22 22 22 24 24 24 23 24
15 18 20 23 24 25 24 24 25 24 25 26 26 25 25 29 28 28 30 30 30 32 34 35 36 38 38 37 32 32 30 28 26 24 22 22 21 21 22 21 23 22 25
18 20 23 23 22 23 24 25 26 26 25 25 24 26 28 28 29 32 33 33 32 33 33 34 35 39 42 39 40 39 38 35 31 23 21 19 22 22 22 23 22 20 12
18 20 22 22 23 23 24 25 25 25 25 26 26 28 29 30 31 33 34 35 34 35 33 32 31 27 30 37 38 34 34 32 29 34 27 26 23 26 23 22 24 22 22
19 20 21 22 23 24 25 25 25 24 26 28 28 29 30 32 31 33 34 35 34 36 36 37 37 35 28 30 29 27 26 26 23 23 22 22 25 26 23 25 25 22 20
18 19 21 23 24 25 25 25 25 27 27 29 28 29 29 32 32 33 35 35 34 36 39 40 38 33 29 29 27 23 24 24 21 23 24 23 26 26 23 24 22 14 8
17 20 22 23 23 25 24 25 26 27 27 28 29 30 29 32 34 35 33 35 31 34 31 38 38 34 24 22 23 19 16 20 19 19 19 22 20 25 28 31 22 14 15
21 23 23 23 24 22 24 24 26 27 28 28 28 29 30 28 28 27 32 36 33 30 26 28 12 14 15 18 17 17 20 19 19 20 18 17 17 17 21 24 24 25 14
23 24 23 24 22 22 24 26 27 26 24 24 26 26 23 25 22 24 30 33 34 26 18 12 6 4 6 7 10 11 16 19 19 17 14 12 16 16 18 23 25 27 21
23 23 24 23 22 23 25 26 26 23 22 23 22 20 24 17 22 23 28 32 32 22 12 8 6 5 5 5 5 4 7 10 10 10 12 11 10 11 14 14 21 20 17
21 22 22 22 24 24 24 24 24 22 22 21 18 19 22 18 22 24 25 27 28 22 14 8 6 3 2 2 1 8 5 8 15 13 9 7 6 9 13 18 14 15 11
19 20 21 21 25 24 23 22 24 24 23 23 21 22 16 18 23 26 26 26 26 22 11 9 6 4 2 1 3 9 2 2 10 10 8 7 7 5 11 17 17 10 13
18 19 21 22 24 23 22 25 24 22 22 21 20 22 20 23 26 26 25 24 23 22 8 8 7 7 6 5 3 7 10 5 11 11 9 8 8 8 10 13 11 4 12
18 20 20 21 23 22 23 21 21 25 21 18 18 21 20 26 26 23 23 21 20 20 16 14 9 8 8 8 6 3 5 8 7 10 11 12 13 11 16 15 12 6 9
20 19 19 21 21 22 21 21 20 18 18 19 20 20 19 24 24 22 21 19 19 19 17 15 13 12 10 8 6 5 3 5 7 8 12 17 14 11 12 13 12 9 9
19 17 22 20 20 22 21 20 19 17 17 15 20 20 20 22 21 21 21 19 17 16 17 17 15 12 10 7 5 4 3 4 6 5 8 10 11 11 11 11 12 10 11
19 20 19 19 20 21 20 18 17 16 15 17 16 20 23 22 21 23 22 20 19 17 17 16 15 12 11 9 6 3 5 5 6 6 6 7 9 9 10 12 12 13 14
16 17 18 19 18 21 20 18 17 16 15 14 15 18 23 21 20 21 21 21 20 19 18 17 16 14 10 9 7 4 5 5 9 9 8 9 11 11 11 14 15 14 14
18 14 16 18 19 19 20 20 18 16 17 16 17 17 20 19 21 23 23 22 22 22 20 18 17 14 12 10 9 8 7 7 6 14 15 13 14 16 13 11 15 15 15
13 15 16 17 19 19 20 20 19 18 18 19 20 18 20 21 22 22 24 24 25 26 25 22 20 17 13 12 11 12 12 11 10 11 17 16 17 17 15 13 13 14 16
12 13 14 16 19 19 19 19 19 19 21 20 21 17 21 22 23 26 26 27 27 27 27 25 22 18 13 12 13 15 17 16 14 13 15 19 18 20 18 15 14 16 15
11 14 14 17 16 18 19 19 19 19 20 22 19 20 21 23 26 27 28 29 29 29 28 27 24 21 17 12 14 17 19 19 18 17 16 20 23 22 21 19 16 19 18
11 12 13 17 18 18 17 19 19 19 21 21 19 21 22 24 26 28 30 31 33 32 32 29 27 24 15 8 11 19 20 22 22 20 18 18 22 21 20 19 21 18 19
Wind_Direction
321 319 317 315 313 312 311 313 313 310 308 306 304 301 298 295 293 289 284 281 277 275 275 267 263 260 267 269 262 260 257 254 263 272 270 272 274 266 259 255 255 258 264
319 319 315 312 315 317 316 315 316 311 310 306 302 297 294 292 291 287 284 281 278 276 273 272 261 263 261 258 257 258 257 256 259 267 268 267 264 266 262 263 263 259 259
320 322 321 320 321 319 317 315 313 310 307 304 299 295 292 292 292 289 286 284 280 279 278 271 269 269 263 258 253 249 248 249 254 258 265 265 263 261 262 258 257 260 256
325 323 322 321 320 318 316 313 310 308 304 302 298 296 293 292 292 291 288 288 284 279 273 269 265 260 259 258 252 247 247 247 249 251 256 258 255 255 251 257 262 255 260
322 323 324 322 321 320 315 311 310 308 305 303 301 300 298 296 295 295 291 286 279 275 270 267 263 257 256 252 245 245 243 242 240 244 254 252 248 243 243 247 253 263 257
328 324 323 322 319 316 314 314 311 309 307 305 302 302 301 299 300 299 297 293 288 280 273 271 266 261 259 261 254 250 231 231 232 232 242 241 243 240 245 248 245 250 251
322 321 322 321 318 317 316 314 312 310 310 308 306 304 303 301 303 303 303 300 294 289 285 282 280 274 254 258 249 255 254 252 233 226 230 234 238 244 239 245 245 248 246
321 322 322 320 317 318 316 314 313 312 312 310 305 305 304 302 305 305 304 304 298 290 285 278 274 272 262 253 240 239 245 254 253 256 246 244 238 250 243 240 246 242 250
320 318 320 319 317 316 313 313 311 307 308 307 306 305 304 303 306 306 306 304 301 292 286 277 268 261 264 251 238 229 238 240 251 254 253 253 248 245 235 240 231 215 246
319 318 320 319 316 315 311 309 307 309 308 307 306 305 304 304 305 308 314 309 309 300 300 291 265 250 242 243 241 229 234 241 244 246 252 250 246 247 234 233 232 221 203
322 324 323 321 320 318 315 312 314 311 310 306 306 305 302 304 310 317 322 325 317 321 317 319 248 229 245 225 229 226 232 243 243 243 246 242 258 239 219 234 222 208 201
327 325 324 324 324 320 315 315 315 310 310 310 308 311 307 314 318 322 332 331 331 332 340 357 358 255 249 246 249 247 247 245 238 237 234 228 241 230 236 229 218 210 215
327 325 326 324 324 322 321 316 312 313 312 309 309 312 315 321 328 332 339 339 336 343 335 356 339 296 263 264 290 276 299 269 223 222 226 220 219 237 243 172 193 198 216
327 327 327 326 326 324 318 314 311 309 310 307 317 318 321 327 334 341 343 343 341 340 346 337 326 295 311 124 50 6 327 265 190 197 201 186 191 236 153 167 161 170 144
325 324 328 323 328 320 315 317 316 314 316 327 327 325 349 340 337 338 343 346 342 336 341 358 353 359 8 15 352 5 330 239 200 185 183 182 162 161 142 155 174 150 123
326 326 324 327 324 315 317 319 325 326 329 332 334 342 346 342 341 344 344 346 349 352 358 15 11 359 351 331 319 17 4 25 178 177 176 182 146 146 124 124 124 79 133
326 325 321 327 318 321 323 319 320 328 337 344 347 342 347 348 347 348 351 353 358 7 8 7 6 354 355 346 331 339 26 346 140 166 164 153 171 152 141 137 146 201 133
333 329 328 321 319 323 320 320 320 324 329 333 342 345 348 354 356 359 356 356 353 359 2 0 1 1 350 339 333 344 48 25 40 106 139 143 153 150 143 145 157 160 159
335 330 330 324 330 329 326 324 326 329 330 328 337 343 345 349 354 353 357 356 347 346 348 351 352 352 350 345 335 320 297 165 161 139 126 145 157 157 160 162 160 157 161
335 331 335 332 332 330 327 326 329 330 329 335 342 341 340 349 349 350 347 344 345 339 339 340 343 341 335 337 334 294 277 239 181 159 157 160 162 169 178 176 165 166 172
331 335 337 336 335 331 332 330 329 328 325 341 338 342 347 349 332 344 340 340 338 334 329 327 328 329 321 312 311 294 248 242 216 194 183 182 177 180 186 184 185 174 166
336 334 336 332 338 333 340 337 332 329 334 327 324 336 341 348 342 343 339 335 332 332 331 325 315 310 303 290 281 272 257 236 208 204 200 189 185 188 190 185 184 176 166
339 337 338 338 342 342 344 343 339 338 333 331 340 329 339 345 341 340 336 330 327 325 327 325 317 309 296 281 262 252 246 236 219 194 193 187 185 179 183 194 182 175 175
342 341 341 340 347 349 345 344 346 348 345 339 344 354 352 346 340 337 335 331 327 324 324 322 320 315 305 279 257 240 233 230 218 203 192 187 182 184 188 194 192 183 187
344 346 344 346 344 349 349 348 348 347 345 351 3 357 350 346 344 341 338 335 332 330 330 333 335 330 321 289 250 230 222 215 212 204 193 190 192 186 185 190 192 189 189
346 344 346 352 350 342 350 353 351 350 349 356 355 356 351 349 348 343 343 342 341 339 341 342 345 346 349 322 223 210 203 196 196 198 192 195 190 188 186 190 200 187 185